Location: Guferjoch
(46.7462°N, 8.4506°E)
Time: 13:12:34
(UTC+00:00)

Cosmos 1850 Rocket - Pass Details

Date: 14 July 2020
Orbit: 754 x 785 km, 74.0° (Epoch: 07 August)

Event Time Altitude Azimuth Distance (km) Brightness Sun altitude
Exits shadow 02:46:39 10° 208° (SSW) 2,375 5.9 -8.8°
Reaches altitude 10° 02:46:45 10° 208° (SSW) 2,338 5.9 -8.8°
Maximum altitude 02:52:04 74° 293° (WNW) 821 4.1 -8.1°
Drops below altitude 10° 02:57:25 10° 19° (NNE) 2,351 7.6 -7.5°
Sets 02:59:50 0° 21° (NNE) 3,281 8.6 -7.2°
